This is the latest recevied weather packets stored in our database for station/object KB0RPJ. If no packets are shown the sender has not sent any weather packets the latest 10 day(s).
| Time | Temp. | Humidity | Pressure | Rain* | Wind** | Luminosity | Snow |
|---|---|---|---|---|---|---|---|
| 1777602904 | 10° C | 63% | 1017.9 hPa | 0 mm | - | 0 W/m² | - |
| 1777602605 | 10° C | 63% | 1017.8 hPa | 0 mm | - | 0 W/m² | - |
| 1777602304 | 10° C | 62% | 1017.6 hPa | 0 mm | - | 0 W/m² | - |
| 1777602005 | 10.56° C | 61% | 1017.6 hPa | 0 mm | - | 0 W/m² | - |
| 1777601705 | 10.56° C | 60% | 1017.4 hPa | 0 mm | - | 0 W/m² | - |
| 1777601405 | 10.56° C | 59% | 1017.3 hPa | 0 mm | - | 0 W/m² | - |
| 1777601104 | 10.56° C | 58% | 1017.3 hPa | 0 mm | - | 0 W/m² | - |
| 1777600805 | 11.11° C | 58% | 1017.2 hPa | 0 mm | - | 0 W/m² | - |
| 1777600506 | 11.11° C | 57% | 1017.2 hPa | 0 mm | - | 0 W/m² | - |
| 1777600205 | 11.11° C | 57% | 1017.3 hPa | 0 mm | - | 0 W/m² | - |
| 1777599905 | 11.11° C | 57% | 1017.3 hPa | 0 mm | - | 0 W/m² | - |
| 1777599605 | 11.11° C | 57% | 1017.2 hPa | 0 mm | - | 0 W/m² | - |
| 1777599305 | 11.11° C | 56% | 1017.2 hPa | 0 mm | - | 0 W/m² | - |
| 1777599006 | 11.11° C | 56% | 1017.1 hPa | 0 mm | - | 0 W/m² | - |
| 1777598704 | 11.11° C | 55% | 1017 hPa | 0 mm | - | 0 W/m² | - |
| 1777598421 | 11.67° C | 55% | 1017 hPa | 0 mm | - | 0 W/m² | - |
| 1777598104 | 11.67° C | 54% | 1016.9 hPa | 0 mm | - | 0 W/m² | - |
| 1777597807 | 11.67° C | 54% | 1017 hPa | 0 mm | - | 0 W/m² | - |
| 1777597504 | 11.67° C | 53% | 1017 hPa | 0 mm | - | 5 W/m² | - |
| 1777597205 | 11.67° C | 53% | 1016.9 hPa | 0 mm | - | 9 W/m² | - |
| 1777596904 | 12.22° C | 53% | 1016.8 hPa | 0 mm | - | 15 W/m² | - |
| 1777596605 | 12.22° C | 52% | 1016.7 hPa | 0 mm | - | 20 W/m² | - |
| 1777596305 | 12.22° C | 52% | 1016.7 hPa | 0 mm | - | 26 W/m² | - |
| 1777596006 | 12.22° C | 53% | 1016.7 hPa | 0 mm | - | 33 W/m² | - |
| 1777595705 | 12.22° C | 52% | 1016.6 hPa | 0 mm | - | 35 W/m² | - |
* Rain latest hour (hover to see other rain measurements)
** Current wind speed in m/s (hover to see current wind gust speed)